Location: Unspecified
(0.0000°N, 0.0000°E)
Time: 12:04:53
(UTC+00:00)

deb Explorer IX - All Passes

Search period start: 07 October 2022 00:00
Search period end: 17 October 2022 00:00
Orbit: 532 x 1063 km, 38.8° (Epoch: 06 October)

Date Brightness Start Highest point End Pass type
(mag) Time Alt. Az. Time Alt. Az. Time Alt. Az.
07 Oct - 01:15:35 10° WSW 01:19:36 55° NW 01:23:32 10° NE night (unlit)
07 Oct - 12:03:56 10° NNW 12:10:28 52° NE 12:17:22 10° ESE daylight
07 Oct - 13:51:05 10° WNW 13:57:18 34° SW 14:03:33 10° SSE daylight
07 Oct - 23:01:23 10° SSE 23:02:46 11° SE 23:04:08 10° SE night (unlit)
08 Oct - 00:44:56 10° SW 00:49:05 66° NW 00:53:03 10° NE night (unlit)
08 Oct - 11:33:19 10° NNW 11:39:38 47° NE 11:46:23 10° ESE daylight
08 Oct - 13:20:08 10° WNW 13:26:27 37° SW 13:32:54 10° SSE daylight
08 Oct - 22:31:25 10° SSE 22:32:07 10° SE 22:32:49 10° SE night (unlit)
09 Oct - 00:14:15 10° SW 00:18:33 78° NW 00:22:32 10° NE night (unlit)
09 Oct - 11:02:44 10° NNW 11:08:46 42° NE 11:15:20 10° ESE daylight
09 Oct - 12:49:12 10° WNW 12:55:32 41° SW 13:02:09 10° SSE daylight
09 Oct - 23:43:30 10° SW 23:47:57 89° SSE 23:52:00 10° NE night (unlit)
10 Oct - 10:32:10 10° NNW 10:37:55 37° NE 10:44:12 10° ESE daylight
10 Oct - 12:18:18 10° WNW 12:24:37 44° SW 12:31:21 10° SSE daylight
10 Oct - 23:12:43 10° SW 23:17:19 77° SE 23:21:26 10° NE night (unlit)
11 Oct - 10:01:38 10° NNW 10:07:02 33° NE 10:13:01 10° ESE daylight
11 Oct - 11:47:24 10° WNW 11:53:41 49° SW 12:00:28 10° SSE daylight
11 Oct - 22:41:54 10° SW 22:46:39 67° SE 22:50:50 10° ENE night (unlit)
12 Oct - 00:31:35 10° NW 00:32:39 11° NW 00:33:43 10° NNW night (unlit)
12 Oct - 09:31:06 10° NNW 09:36:09 29° NE 09:41:45 10° E daylight
12 Oct - 11:16:33 10° WNW 11:22:43 53° SW 11:29:32 10° SE daylight
12 Oct - 13:08:27 10° SW 13:10:04 11° SW 13:11:42 10° SSW daylight
12 Oct - 22:11:02 10° SW 22:15:56 58° SE 22:20:11 10° ENE night (unlit)
12 Oct - 23:59:52 10° WNW 00:01:56 13° NW 00:03:55 10° NNW night (unlit)
13 Oct - 09:00:37 10° NNW 09:05:16 25° NE 09:10:24 10° E daylight
13 Oct - 10:45:42 10° WNW 10:51:44 59° SW 10:58:33 10° SE daylight
13 Oct - 12:36:37 10° SW 12:39:03 12° SW 12:41:31 10° SSW daylight
13 Oct - 21:40:07 10° SW 21:45:09 51° SE 21:49:30 10° ENE night (unlit)
13 Oct - 23:28:26 10° W 23:31:11 16° NW 23:33:47 10° N night (unlit)
14 Oct - 08:30:11 10° N 08:34:22 21° NE 08:38:59 10° E daylight
14 Oct - 10:14:51 10° WNW 10:20:45 65° SW 10:27:30 10° SE daylight
14 Oct - 12:05:04 10° WSW 12:08:00 13° SW 12:11:01 10° S daylight
14 Oct - 21:09:10 10° SSW 21:14:20 46° SE 21:18:47 10° ENE visible
14 Oct - 22:57:03 10° W 23:00:24 19° NW 23:03:30 10° N night (unlit)
15 Oct - 07:59:48 10° N 08:03:27 18° NE 08:07:27 10° E daylight
15 Oct - 09:44:02 10° NW 09:49:46 72° SW 09:56:25 10° SE daylight
15 Oct - 11:33:40 10° WSW 11:36:56 14° SW 11:40:21 10° S daylight
15 Oct - 20:38:10 10° SSW 20:43:27 41° SE 20:47:59 10° ENE visible
15 Oct - 22:25:43 10° W 22:29:35 22° NW 22:33:06 10° N night (unlit)
16 Oct - 07:29:30 10° N 07:32:32 15° NE 07:35:48 10° ENE daylight
16 Oct - 09:13:13 10° NW 09:18:47 80° SW 09:25:17 10° SE daylight
16 Oct - 11:02:20 10° WSW 11:05:51 15° SW 11:09:34 10° S daylight
16 Oct - 20:07:08 10° SSW 20:12:31 38° SE 20:17:09 10° ENE visible
16 Oct - 21:54:22 10° W 21:58:44 27° NW 22:02:37 10° NNE night (unlit)
